Theta_e
337 339 347 346 343 342 343 344 344 343 342 342 341 341 341 341 341 340 340 339 340 342 342 342 339 338 337 337 336 336 335 334 333 332 332 332 331 330 330 330 330 324 336
339 341 345 346 343 342 343 344 344 343 343 342 340 339 339 339 339 338 338 337 339 340 341 341 338 336 335 334 333 333 333 333 333 333 332 331 330 329 330 329 330 328 332
339 342 344 345 344 342 341 343 344 344 343 342 340 339 337 336 336 335 336 336 337 338 339 340 338 336 334 332 332 332 331 330 329 331 329 321 320 329 328 327 328 328 329
341 341 342 344 344 343 343 341 344 345 343 342 341 338 337 335 333 332 333 335 335 336 336 337 339 336 333 331 331 331 331 330 332 332 320 321 322 328 327 327 328 327 328
340 340 340 344 345 343 342 342 343 344 343 341 339 337 336 334 333 333 332 334 335 334 334 336 338 336 333 331 330 330 330 327 326 321 318 318 319 326 328 328 326 327 325
338 339 340 344 344 342 342 341 343 343 341 340 339 338 335 334 332 332 332 333 331 332 332 333 335 337 334 331 330 329 329 326 320 314 317 318 319 327 326 325 324 324 326
335 337 339 343 344 343 341 341 342 344 341 341 340 338 336 335 333 332 332 331 331 329 329 331 331 332 334 332 331 330 328 326 315 313 314 317 318 329 326 325 324 323 323
335 337 338 336 339 341 341 341 342 342 341 340 340 341 338 337 335 333 332 330 330 329 329 330 329 330 330 331 332 332 331 328 319 315 313 315 320 328 328 326 325 324 324
335 336 336 336 336 334 337 337 339 340 340 340 341 342 339 339 338 337 336 334 332 330 330 330 329 329 329 329 330 332 330 328 319 317 317 314 321 327 330 328 326 325 325
332 334 333 333 334 332 331 331 333 335 336 337 338 336 334 334 335 335 332 335 335 333 332 332 332 330 328 328 331 330 327 325 316 316 316 315 324 328 330 330 329 327 326
330 330 331 331 331 330 330 329 327 330 331 332 331 329 326 328 330 330 328 331 336 336 336 335 335 334 331 329 328 327 325 317 314 314 314 320 325 329 331 332 332 330 329
326 328 329 329 329 330 332 329 326 328 327 327 328 326 326 324 325 329 325 326 330 331 334 336 335 333 327 322 319 321 317 316 315 314 314 321 326 329 332 332 332 332 331
327 326 329 328 329 328 328 327 326 325 324 324 324 324 323 324 322 323 324 324 323 322 323 325 325 326 324 321 320 318 317 316 315 315 316 321 325 328 330 331 332 333 332
325 327 328 329 328 327 328 327 326 324 324 323 323 323 321 319 319 319 319 321 321 321 320 319 319 321 321 321 320 319 318 317 316 316 316 318 322 327 330 331 331 332 333
323 326 327 328 328 328 327 327 326 325 325 325 323 323 322 320 319 318 318 318 319 320 319 318 318 318 317 317 318 319 318 318 318 317 316 316 320 325 329 332 333 333 333
324 324 327 327 329 329 328 326 327 325 326 324 323 324 323 322 320 319 319 318 317 318 319 319 318 317 316 316 317 318 318 318 318 318 317 317 320 323 327 330 332 333 334
324 324 323 325 327 326 327 327 327 327 326 325 325 323 323 323 321 321 320 319 319 319 318 317 316 316 315 316 316 317 318 318 318 317 317 317 317 319 322 327 329 331 332
320 319 320 323 326 326 326 326 326 326 326 326 325 325 324 324 324 322 321 321 324 323 322 320 320 318 317 318 318 318 319 317 316 316 316 317 318 319 319 322 324 326 328
312 314 313 310 313 316 319 323 324 324 324 326 325 325 325 325 325 324 323 324 326 324 323 322 321 320 319 318 318 319 319 318 318 319 318 319 319 320 319 319 320 320 323
306 307 307 307 308 309 310 309 308 310 316 322 323 325 325 326 326 325 325 325 325 325 324 323 323 321 321 320 319 319 319 320 320 320 319 318 319 318 319 319 319 319 320
303 304 305 306 307 308 307 307 306 306 309 313 318 321 323 325 326 325 326 325 325 324 325 325 323 322 321 321 318 319 320 322 321 319 318 317 318 320 321 321 320 318 314
303 303 305 305 304 305 305 306 307 308 309 311 315 318 323 324 324 326 326 324 324 324 324 324 323 320 321 321 318 317 313 315 314 316 318 317 319 319 319 315 309 306 303
300 301 302 302 302 302 302 304 308 309 310 311 315 317 314 317 320 322 323 323 323 323 323 323 323 322 321 321 322 317 311 309 308 311 314 316 318 316 311 300 298 297 299
300 300 300 299 299 299 299 303 306 309 308 311 312 310 307 308 310 312 314 317 319 321 323 323 323 324 323 320 319 321 320 316 310 308 310 311 312 308 301 295 292 293 294
298 297 296 296 295 294 295 298 302 304 309 309 306 304 302 302 303 305 307 309 310 313 314 315 315 317 321 320 319 316 316 314 314 310 307 308 305 299 294 290 291 289 290
295 294 293 293 292 291 292 293 298 302 306 306 304 302 300 299 298 298 300 302 304 307 308 308 307 308 309 310 310 311 312 310 307 308 307 302 303 297 292 289 287 288 288
Wind_Speed
4 6 11 11 11 10 8 9 9 10 10 10 9 10 10 11 11 11 11 11 11 11 13 15 11 12 13 13 13 13 13 12 11 11 10 10 10 11 10 10 9 5 8
9 7 11 11 11 10 9 8 10 11 11 10 10 9 9 8 9 8 8 8 9 9 10 10 10 10 12 13 12 11 11 9 8 8 9 9 8 8 10 7 6 6 9
10 8 9 11 11 11 9 7 9 12 11 10 9 8 7 8 7 6 6 7 8 8 8 7 8 9 11 11 10 10 9 6 3 7 7 4 5 8 5 5 6 8 9
9 7 9 11 12 12 10 8 9 12 11 10 9 7 6 6 5 5 5 6 7 7 7 6 7 8 9 9 9 9 9 8 7 4 4 4 4 6 5 5 6 6 7
6 6 7 11 11 12 10 8 9 12 12 10 9 8 7 7 6 6 6 6 7 5 5 6 4 8 7 6 7 7 9 8 8 4 2 2 3 4 5 4 5 6 4
5 5 7 10 10 11 10 9 10 10 10 9 9 9 8 8 7 6 5 5 3 5 4 4 6 5 4 5 5 5 7 7 7 4 0 3 3 4 4 2 3 3 5
5 4 6 9 8 8 9 9 8 12 9 9 9 9 9 8 7 7 7 5 5 3 2 2 2 4 3 1 2 3 5 6 4 3 2 2 4 7 3 1 2 3 3
6 5 5 6 7 6 6 6 5 6 6 6 6 9 8 8 8 7 6 6 4 4 4 3 2 2 2 3 3 3 3 3 3 3 3 3 6 8 5 3 3 4 5
4 5 5 5 5 6 5 5 5 4 4 4 6 8 7 6 7 7 7 6 6 5 5 5 4 4 4 4 5 4 5 5 2 2 3 2 7 9 9 5 5 5 6
5 5 5 5 5 5 5 7 7 7 6 6 5 5 5 6 6 6 6 7 8 7 7 7 6 6 6 6 6 6 6 6 3 3 3 3 9 10 10 9 6 6 6
4 6 5 5 5 5 5 4 5 6 6 6 6 7 5 3 4 6 5 6 8 8 8 8 8 8 7 7 7 7 6 2 3 3 3 8 10 10 10 12 10 8 8
6 6 6 6 6 5 4 5 5 5 4 4 5 5 4 4 4 4 5 7 8 8 9 8 8 9 6 3 3 4 2 3 3 4 3 9 11 12 12 11 14 10 10
8 4 7 6 6 6 5 4 3 3 3 3 6 5 5 3 3 3 3 3 3 4 3 4 4 3 4 3 4 3 4 4 3 3 5 10 12 12 13 13 13 15 12
8 10 8 8 6 7 4 4 4 4 4 4 5 6 4 3 4 4 3 4 4 3 4 4 3 4 5 5 5 5 5 4 3 3 4 10 12 13 14 15 15 15 16
7 7 9 8 8 8 7 4 4 5 4 5 5 5 5 4 5 4 4 4 4 3 4 4 4 4 4 5 4 5 5 5 5 3 3 9 12 14 16 17 16 16 16
7 8 7 8 10 8 8 7 6 5 6 5 5 6 7 6 5 4 4 5 4 4 4 4 4 4 4 4 5 5 6 5 5 5 4 5 12 14 16 17 18 17 17
9 7 7 7 6 8 9 8 6 6 5 5 6 6 7 7 7 6 5 5 5 5 5 4 4 3 4 3 6 5 4 6 5 6 5 5 6 11 16 16 15 15 16
6 7 6 5 7 7 7 5 4 4 5 6 5 5 8 9 9 6 6 6 7 5 6 5 5 5 5 5 5 5 5 5 7 7 5 6 6 6 4 5 8 10 11
8 8 7 4 5 4 4 3 4 5 5 5 4 5 8 8 9 9 7 7 8 6 6 6 5 6 5 5 6 5 5 5 7 5 9 9 5 3 1 3 5 7 11
6 6 5 4 4 2 1 1 1 2 4 4 5 5 7 7 9 8 7 7 6 6 6 6 8 7 5 5 5 5 5 6 5 5 6 3 2 1 2 3 3 4 12
4 5 6 6 4 2 0 1 1 3 2 3 3 6 6 6 7 8 6 6 6 7 8 8 5 7 6 4 2 4 5 6 6 5 2 2 2 2 4 5 5 5 8
5 5 4 4 3 2 1 2 2 2 3 4 3 3 4 5 6 6 7 7 7 6 6 6 6 3 4 5 4 2 2 1 1 2 1 4 6 2 7 11 11 10 8
6 7 6 5 3 2 0 1 2 2 3 2 2 1 2 4 3 2 4 4 5 4 5 4 6 8 6 3 7 3 2 4 2 1 4 4 5 6 10 9 9 10 8
8 5 4 4 3 2 1 2 3 2 2 1 2 2 2 4 4 3 3 3 1 1 3 1 1 4 4 4 2 5 4 2 2 1 1 3 8 9 9 7 8 9 8
8 6 4 3 2 1 1 2 3 2 2 2 1 2 2 3 4 4 3 2 1 1 1 1 2 4 2 4 4 2 1 1 3 2 3 4 7 6 7 6 6 7 8
6 6 5 4 2 1 1 1 2 4 4 3 3 2 1 0 2 3 3 3 2 1 1 1 1 1 0 0 1 1 3 3 3 3 2 1 6 4 5 5 6 5 5
Wind_Direction
168 170 150 145 141 140 137 141 135 127 118 114 109 102 101 97 95 91 84 77 76 73 83 79 88 86 85 83 79 76 72 68 62 61 60 62 67 74 66 58 33 26 44
142 159 152 147 144 145 141 144 155 140 136 129 124 118 112 104 98 95 92 85 85 82 87 91 89 86 80 75 74 74 68 62 61 59 49 39 53 70 72 59 66 27 41
148 154 150 146 148 146 146 139 176 161 146 138 132 123 114 113 110 108 102 95 94 91 84 88 95 92 86 80 80 76 59 46 64 67 56 23 358 65 62 82 60 38 36
151 163 150 156 156 158 160 155 155 168 152 144 142 137 131 123 118 123 124 124 113 98 84 70 119 101 94 86 79 75 62 57 52 110 43 26 2 35 44 36 52 38 43
150 149 152 155 163 166 168 164 158 160 153 154 155 155 153 140 144 122 134 159 128 108 81 57 123 127 111 94 82 72 68 68 61 60 35 5 4 6 18 47 39 20 19
151 150 155 158 165 170 175 172 171 169 167 167 170 170 170 161 162 161 145 146 111 122 103 69 38 114 121 109 83 72 65 63 59 36 18 331 345 323 8 35 4 18 22
156 156 160 165 170 172 180 183 186 178 182 187 191 188 181 176 179 178 183 180 166 158 147 103 31 28 46 142 55 43 63 65 56 25 329 308 305 305 341 353 322 321 326
159 165 164 174 172 176 187 194 191 194 199 213 233 202 194 190 193 201 202 204 201 210 210 199 230 247 300 323 333 318 353 26 44 357 346 276 280 292 297 292 298 301 295
165 164 172 178 182 182 190 200 210 220 234 248 267 198 201 206 204 216 214 216 223 231 232 236 240 248 259 275 287 300 310 325 356 317 306 298 277 278 285 279 288 303 298
172 180 182 190 187 190 198 200 201 211 222 232 235 225 223 231 232 231 235 240 234 235 239 242 242 251 261 267 269 278 296 319 332 317 297 282 288 281 280 290 266 276 288
200 199 192 199 201 197 205 215 215 218 221 224 227 230 232 231 247 248 241 233 250 248 240 243 238 238 250 268 280 287 299 299 301 291 283 285 289 281 287 282 279 263 263
209 209 200 199 205 196 202 204 211 217 220 223 220 224 226 229 237 238 238 243 247 258 260 257 253 241 249 254 278 306 298 292 290 283 273 282 289 283 293 282 282 279 270
205 194 197 198 199 199 203 200 205 206 210 221 225 220 222 227 232 238 238 241 238 256 260 274 286 269 248 249 265 264 271 279 272 274 278 285 285 289 293 294 283 286 274
190 206 200 198 194 205 200 202 202 202 205 213 218 216 205 218 228 231 223 223 219 215 235 235 238 252 257 254 250 264 261 262 263 263 267 277 281 285 290 291 287 286 290
234 218 208 189 199 204 203 204 206 212 211 218 210 210 197 212 223 216 225 220 220 208 214 227 224 234 246 250 258 251 258 257 259 252 256 263 269 278 283 283 282 284 286
237 240 223 212 208 194 202 199 209 204 218 210 211 217 206 209 214 212 223 225 224 208 213 216 216 220 231 223 248 236 244 244 245 248 245 258 259 264 271 274 275 284 291
227 249 229 223 211 203 206 207 207 215 207 217 220 209 209 205 215 213 218 221 227 210 215 215 228 224 233 232 239 244 234 244 243 245 242 241 256 258 258 274 290 293 296
236 233 252 220 202 210 212 207 207 210 207 223 216 211 212 213 213 210 215 220 230 215 207 207 213 221 223 223 231 232 229 226 238 235 238 239 236 241 255 258 284 294 301
220 220 226 208 200 210 223 226 223 220 213 225 210 216 223 217 216 216 217 227 222 206 205 209 217 218 219 219 223 232 229 232 240 238 237 245 269 303 324 294 315 323 339
210 201 178 163 167 168 174 215 243 252 249 224 224 224 221 224 218 212 222 224 210 207 207 204 213 203 216 210 211 229 222 230 232 230 246 248 251 171 353 6 27 28 33
190 174 177 173 178 151 140 225 275 242 279 270 248 242 237 236 222 216 223 224 209 214 217 208 199 219 227 194 185 248 248 235 236 237 204 182 168 81 71 45 61 46 67
180 179 176 190 173 177 173 218 231 237 257 251 250 272 263 242 224 215 211 210 196 213 218 204 197 193 227 171 201 210 256 288 346 1 154 127 102 79 64 62 57 61 52
212 192 188 186 178 154 31 323 303 276 288 288 259 125 17 353 346 290 234 220 217 211 219 207 202 206 222 181 206 195 176 214 122 31 77 104 103 80 87 69 57 52 58
209 182 182 175 171 146 25 232 222 220 250 300 33 39 21 14 11 7 12 358 326 247 256 229 296 235 186 211 190 223 248 142 168 175 49 85 72 73 70 66 61 59 49
155 172 174 155 131 87 174 226 220 222 228 144 102 105 50 30 24 27 28 43 41 25 23 257 259 261 225 198 198 173 183 105 143 158 195 140 87 72 83 73 74 58 41
150 156 160 166 172 198 171 100 170 193 201 165 154 165 174 44 18 26 38 40 25 65 42 81 31 1 358 332 104 198 166 163 172 169 144 96 117 99 81 69 62 60 46